Meteo Giornale » Osservazioni meteo Arabia Saudita » Al-Jouf
ore: 01:00 - Osservazioni Meteo Al-Jouf
Lat. 29° 47' N Lon. 40° 6' E Alt. 689 metri s.l.m.
28 °C
Sereno
Temp. 24 Ore
24 °C
35 °C
Nord
7.4 Km/h
Dew point 7 °C
Umidità 26 %
Visibilità 10 Km
Il sole sorge alle ore 05:56
Il sole tramonta alle ore 18:42
| Data e Ora | Cielo e Fenomeni | T °C | DP °C | Um. % | Pres. hPa | Vis. km | Vento km/h | |
|---|---|---|---|---|---|---|---|---|
| Oggi h: 01:00 | Sereno | 28 | 7 | 26 | 1013 | 10 | N 7.4 | |
| Oggi h: 00:00 | Sereno | 28 | 7 | 26 | 1013 | 10 | N 9.3 | |
| Ieri h: 23:00 | Sereno | 29 | 7 | 25 | 1013 | 10 | NO 9.3 | |
| Ieri h: 22:00 | Sereno | 30 | 7 | 23 | 1014 | 10 | NO 9.3 | |
| Ieri h: 21:00 | Sereno | 31 | 7 | 22 | 1014 | 10 | O/NO 14.8 | |
| Ieri h: 20:00 | Sereno | 32 | 7 | 21 | 1013 | 10 | O 11.1 | |
| Ieri h: 19:00 | Sereno | 34 | 6 | 17 | 1012 | 10 | NO 9.3 | |
| Ieri h: 18:00 | Sereno | 34 | 7 | 18 | 1012 | 10 | O 9.3 | |
| Ieri h: 17:00 | Sereno | 35 | 8 | 19 | 1012 | 10 | N 3.7 | |
| Ieri h: 16:00 | Sereno | 35 | 8 | 19 | 1013 | 10 | O/SO 7.4 | |
| Ieri h: 15:00 | Sereno | 35 | 9 | 20 | 1013 | 10 | N 5.5 | |
| Ieri h: 14:00 | Sereno | 33 | 10 | 24 | 1014 | 10 | O/NO 9.3 | |
| Ieri h: 13:00 | Sereno | 33 | 10 | 24 | 1014 | 10 | N 5.5 | |
| Ieri h: 12:00 | Sereno | 31 | 10 | 27 | 1014 | 10 | O/NO 7.4 | |
| Ieri h: 11:00 | Sereno | 30 | 11 | 30 | 1015 | 10 | N/NO 9.3 | |
| Ieri h: 10:00 | Sereno | 29 | 12 | 35 | 1015 | 10 | NO 13 | |
| Ieri h: 09:00 | Sereno | 27 | 12 | 39 | 1015 | 10 | NO 9.3 | |
| Ieri h: 08:00 | Sereno | 25 | 10 | 38 | 1015 | 10 | NO 9.3 | |
| Ieri h: 07:00 | Sereno | 24 | 10 | 41 | 1014 | 10 | NO 7.4 | |
| Ieri h: 06:00 | Sereno | 24 | 9 | 38 | 1014 | 10 | NO 11.1 | |
| Ieri h: 05:00 | Sereno | 25 | 8 | 33 | 1013 | 10 | NO 14.8 | |
| Ieri h: 04:00 | Sereno | 25 | 8 | 33 | 1013 | 10 | NO 9.3 | |
| Ieri h: 03:00 | Sereno | 26 | 7 | 29 | 1013 | 10 | NO 9.3 | |
| Ieri h: 02:00 | Sereno | 27 | 7 | 28 | 1013 | 10 | N/NO 7.4 | |



